Regional Weather Roundup
Issued by NWS Albany, NY

Home | Current Version | Previous Version | Text Only | Print | Product List | Glossary On
Versions: 1 2 3 4 5 6 7 8 9 10 11 12 13 14 15 16 17 18 19 20 21 22 23 24 25 26 27 28 29 30 31 32 33 34 35 36 37 38 39 40 41 42 43 44 45 46 47 48 49 50
141
ASUS41 KALY 201710
RWRALY

NEW YORK STATE HOURLY WEATHER ROUNDUP
NATIONAL WEATHER SERVICE ALBANY NY
100 PM EDT SUN AUG 20 2017

NOTE: "FAIR" INDICATES FEW OR NO CLOUDS BELOW 12,000 FEET WITH NO
SIGNIFICANT WEATHER AND/OR NO OBSTRUCTIONS TO VISIBILITY.

NYZ032-033-038>043-046>054-057>066-NYZ062>081-082-084-201800-
EAST


CITY           SKY/WX    TMP DP  RH WIND       PRES   REMARKS
ALBANY         PTSUNNY   77  59  53 W10       30.06R
GLENS FALLS    MOSUNNY   78  57  48 NW10      30.04R
POUGHKEEPSIE   MOSUNNY   78  57  48 NW10G16   30.06R
NEWBURGH       MOSUNNY   77  61  57 NW12      30.09S
MONTGOMERY     MOSUNNY   79  60  52 N7        30.08R
WHITE PLAINS   MOSUNNY   78  60  53 NW9       30.07R
ISLIP          MOSUNNY   81  61  50 NW8       30.05R
NEW YORK CITY  PTSUNNY   79  60  52 NW10      30.05S
CENTRAL PARK   SUNNY     79  58  48 VRB5      30.09S
$$

NYZ005>009-017-018-044>046-055-056-201800-
CENTRAL


CITY           SKY/WX    TMP DP  RH WIND       PRES   REMARKS
FULTON         MOSUNNY   78  61  55 NW9       30.10R
SYRACUSE       MOSUNNY   77  59  53 W9        30.09S
ROME           PTSUNNY   75  62  64 NW7       30.09S
ELMIRA         MOSUNNY   79  62  56 VRB3      30.11F
BINGHAMTON     MOSUNNY   71  57  61 W10       30.15R
MONTICELLO     MOSUNNY   73  58  59 NW10      30.14R
$$

NYZ026>034-041>043-087-201800-
NORTH


CITY           SKY/WX    TMP DP  RH WIND       PRES   REMARKS
WATERTOWN      SUNNY     74  64  71 W12       30.07S
FORT DRUM      NOT AVBL
OGDENSBURG     FAIR      79  61  53 SW8       30.03S
MASSENA        MOSUNNY   77  61  57 SW12      30.03S
SARANAC LAKE   MOSUNNY   71  56  58 W8        30.06S
PLATTSBURGH    MOSUNNY   80  55  42 W6        30.00S
$$

NYZ001>004-010>016-019>021-085-201800-
WEST


CITY           SKY/WX    TMP DP  RH WIND       PRES   REMARKS
NIAGARA FALLS  MOSUNNY   82  61  48 SW15      30.08F
BUFFALO        MOSUNNY   78  65  63 SW14      30.10F
DUNKIRK        SUNNY     77  60  55 W13       30.12F
JAMESTOWN      MOSUNNY   75  57  53 SW7       30.17F
WELLSVILLE     MOSUNNY   76  57  51 W7        30.18F
ROCHESTER      PTSUNNY   80  64  58 W12       30.09S
PENN YAN       PTSUNNY   78  61  55 VRB3      30.12F
$$

             KEY
       WCI = WIND CHILL INDEX
       VSB = VISIBILITY
       HX  = HEAT INDEX
$$




USA.gov is the U.S. government's official web portal to all federal, state and local government web resources and services.